Location: CCZU
(31.6840°N, 119.9550°E)
Time: 19:28:44
(UTC+08:00)

Tiangong - Pass Details

Date: 15 December 2021
Orbit: 383 x 386 km, 41.5° (Epoch: 19 January)

Event Time Altitude Azimuth Distance (km) Brightness Sun altitude
Rises 18:38:03 0° 306° (NW) 2,275 5.5 -20.6°
Reaches altitude 10° 18:40:36 10° 327° (NNW) 1,417 4.1 -21.1°
Enters shadow 18:41:16 13° 337° (NNW) 1,248 3.7 -21.3°
